Flag for Germany Weather past 2 weeks in Neumünster, Schleswig-Holstein, Germany

Now
40 °F

Overcast.


Feels Like: 36 °F
Forecast: 36 / 40 °F
Wind: 6 mph from Southwest

Location: Itzehoe

Current Time: Mar 2, 2015 at 6:35:24 AM

Latest Report: Mar 2, 2015 at 5:00 AM


Visibility: 12 mi

Pressure: 29.23 "Hg

Humidity: 91%

Dew point: 37 °F

Location of NeumünsterLocation

Historic Weather in Neumünster — Graph

°F

Neumünster temperature yesterday

Maximum temperature yesterday: 47 °F (at 3:00 PM)
Minimum temperature yesterday: 37 °F (at 6:00 AM)
Average temperature yesterday: 41 °F

Past Weeks' High & Low Weather Summary

 TemperatureHumidityPressure
High47 °F (Mar 1, 3:00 PM)100% (Feb 17, 5:00 PM)30.67 "Hg (Feb 17, 5:00 PM)
Low28 °F (Feb 17, 8:00 AM)57% (Feb 19, 2:00 PM)29.23 "Hg (Feb 21, 11:00 AM)
Average38 °F86%29.88 "Hg
* Reported Feb 15 6:00 AM — Mar 2 5:00 AM, Neumünster, Weather by CustomWeather, © 2015

Note: Actual official high and low records may vary slightly from our data, if they occured in-between our weather recording intervals... More about our weather records

Advertising

Neumünster weather history for previous 24 hours

 ConditionsComfort  
Time TempWeatherWind HumidityBarometerVisibility
5:00 AM
Mon, Mar 2
40 °FOvercast.6 mph91%29.23 "Hg12 mi
3:00 AM41 °FOvercast.6 mph82%29.29 "Hg22 mi
2:00 AM40 °FPassing clouds.3 mph81%29.32 "Hg25 mi
12:00 AM40 °FOvercast.5 mph81%29.41 "Hg25 mi
11:00 PM
Sun, Mar 1
40 °FPassing clouds.5 mph82%29.44 "Hg25 mi
9:00 PM39 °FClear.5 mph83%29.44 "Hg22 mi
8:00 PM42 °FPassing clouds.3 mph78%29.47 "Hg19 mi
6:00 PM44 °FOvercast.7 mph71%29.47 "Hg19 mi
5:00 PM45 °FOvercast.7 mph70%29.44 "Hg19 mi
3:00 PM47 °FOvercast.8 mph70%29.44 "Hg22 mi
2:00 PM47 °FOvercast.9 mph72%29.41 "Hg22 mi
12:00 PM44 °FLow clouds.6 mph94%29.41 "Hg7 mi
11:00 AM42 °FLow clouds.7 mph96%29.41 "Hg6 mi
10:00 AM40 °FLow clouds.7 mph95%29.41 "Hg4 mi
9:00 AM39 °FLow clouds.7 mph95%29.41 "Hg9 mi
8:00 AM38 °FLow clouds.7 mph95%29.41 "Hg3 mi
6:00 AM37 °FOvercast.6 mph89%29.50 "Hg3 mi
Weather by CustomWeather, © 2015

See weather overviewHow to use our weather pages